Content
SEND FEEDBACK

Philippines Flag

OLONGAPO, PHILIPPINES


Home > Asia > Philippines
Elevation: 55 feet     Latitude: 14 48N     Longitude: 120 16E

WEATHER
 
SELECT A DAY
Number of Records: 154,623;   Date Range: 7/31/96 - 3/22/16
 
SHARE

PRINT THIS DATA

[ ← Previous Day ]
WEATHER ALMANAC - AUGUST 13, 2013
[ Next Day → ]
[ °C ]   °F
Weather ElementAverageHighLow
Temperature80.6 °F84.2 °F (3:00 pm)77 °F (5:00 am)
Dewpoint74.5 °F77 °F (2:00 pm)71.6 °F (5:00 pm)
Humidity81.2 %94 % (5:00 am)66 % (5:00 pm)
Barometer29.72 in29.78 in (11:00 pm)29.65 in (4:00 am)
Wind Speed13.2 mph18.4 mph (4:00 am)
Wind Gust39.1 mph (10:00 am)
Weather ElementAverage
Visibility5.9 mi
Wind DirectionS (185 °)

Weather ElementTotal
Precipitation---
Cooling Degree Days15.6 (Base 65)
Growing Degree Days30.6 (Base 50)
Averaged from 22 records on August 13, 2013
WEATHER CONDITIONS BREAKOUT
WIND DIRECTION BREAKOUT
WEATHER BY HOUR - AUGUST 13, 2013
[ °C ]   °F
Local TimeTemperatureDewpointHumidityBarometerVisibilityWind DirectionWind SpeedGust SpeedPrecipitationEventsConditions
4:00 AM78.8 °F75.2 °F89 %29.65 in5.0 miSSW (210°)18.4 mphOvercast
5:00 AM77.0 °F75.2 °F94 %29.65 in5.0 miSSW (210°)16.1 mph28.8 mphRainLight Rain
6:00 AM77.0 °F75.2 °F94 %29.71 in5.0 miSouth (180°)15.0 mphRainLight Rain
7:00 AM77.0 °F75.2 °F94 %29.71 in5.0 miSouth (190°)13.8 mphOvercast
8:00 AM78.8 °F75.2 °F89 %29.71 in5.0 miSouth (180°)15.0 mph27.6 mphRainRain
9:00 AM80.6 °F75.2 °F84 %29.68 in3.7 miSouth (170°)10.4 mphRainRain
10:00 AM78.8 °F75.2 °F89 %29.71 in5.0 miSouth (190°)18.4 mph39.1 mphRainLight Rain
11:00 AM77.0 °F73.4 °F89 %29.74 in5.0 miSouth (190°)15.0 mphRainLight Rain
12:00 PM80.6 °F75.2 °F84 %29.71 in5.0 miSouth (190°)13.8 mphRainLight Rain
1:00 PM80.6 °F75.2 °F84 %29.71 in5.0 miSouth (170°)10.4 mphRainLight Rain
2:00 PM82.4 °F77.0 °F84 %29.68 in5.6 miSouth (190°)11.5 mphRainRain Showers
3:00 PM84.2 °F75.2 °F74 %29.77 in6.2 miSouth (190°)16.1 mph32.2 mphMostly Cloudy
4:00 PM82.4 °F75.2 °F79 %29.71 in6.2 miSouth (180°)13.8 mphOvercast
5:00 PM83.0 °F74.0 °F66 %29.70 in7.0 miSouth (180°)13.4 mphHaze
5:00 PM82.4 °F71.6 °F70 %29.68 in6.2 miSouth (180°)12.7 mphMostly Cloudy
6:00 PM82.4 °F73.4 °F74 %29.71 in6.2 miSouth (180°)11.5 mphMostly Cloudy
7:00 PM82.4 °F73.4 °F74 %29.71 in6.2 miSouth (170°)9.2 mphMostly Cloudy
8:00 PM80.6 °F75.2 °F84 %29.74 in6.2 miSouth (180°)9.2 mphMostly Cloudy
8:00 PM81.0 °F74.0 °F75 %29.75 in9.0 miSouth (180°)8.9 mphHaze
9:00 PM82.4 °F73.4 °F74 %29.77 in6.2 miSouth (180°)9.2 mphMostly Cloudy
11:00 PM82.0 °F73.0 °F69 %29.78 in9.0 miSouth (190°)13.4 mphHaze
11:00 PM82.4 °F73.4 °F74 %29.77 in6.2 miSouth (190°)15.0 mphMostly Cloudy
Hourly data recorded from RPLB, located miles away from Olongapo, Philippines




STORIES FROM OUR PARTNERS